Location: Newark
(22.3060°N, 114.2134°E)
Time: 21:46:52
(UTC+00:00)

Explorer 11/Cluster Stage 4 - Pass Details

Date: 30 July 2021
Orbit: 467 x 1256 km, 28.8° (Epoch: 26 September)

Event Time Altitude Azimuth Distance (km) Brightness Sun altitude
Rises 03:23:33 0° 271° (W) 4,190 10.1 74.1°
Reaches altitude 10° 03:26:36 10° 276° (W) 3,225 9.7 74.7°
Maximum altitude 03:34:39 56° 352° (N) 1,402 8.8 76.6°
Drops below altitude 10° 03:41:55 10° 70° (ENE) 2,918 9.8 78.2°
Sets 03:44:33 0° 75° (ENE) 3,770 10.2 78.8°
